TimeCEST,TemperatureF,Dew PointF,Humidity,Sea Level PressureIn,VisibilityMPH,Wind Direction,Wind SpeedMPH,Gust SpeedMPH,PrecipitationIn,Events,Conditions,WindDirDegrees,DateUTC
12:55 AM,66.2,66.2,100,29.95,6.2,WSW,6.9,-,N/A,,Partly Cloudy,250,2013-06-24 22:55:00
1:55 AM,66.2,66.2,100,29.98,6.2,SW,3.5,-,N/A,,Scattered Clouds,230,2013-06-24 23:55:00
2:00 AM,67,66,94,29.98,9,SW,3.5,,,,,230,2013-06-25 00:00:00
2:55 AM,66.2,66.2,100,29.98,6.2,WSW,2.3,-,N/A,,Scattered Clouds,240,2013-06-25 00:55:00
3:55 AM,64.4,62.6,94,29.92,6.2,WSW,16.1,-,N/A,,Partly Cloudy,250,2013-06-25 01:55:00
4:55 AM,62.6,62.6,100,29.92,6.2,SSE,2.3,-,N/A,,Partly Cloudy,150,2013-06-25 02:55:00
5:00 AM,63,62,96,29.95,11,SSE,2.3,,,,Scattered Clouds,150,2013-06-25 03:00:00
5:55 AM,62.6,59.0,88,29.95,6.2,Calm,Calm,-,N/A,,Partly Cloudy,0,2013-06-25 03:55:00
6:55 AM,62.6,57.2,82,29.95,6.2,WNW,3.5,-,N/A,,Partly Cloudy,300,2013-06-25 04:55:00
7:55 AM,64.4,60.8,88,29.98,6.2,NNW,2.3,-,N/A,,Partly Cloudy,330,2013-06-25 05:55:00
8:00 AM,64,60,83,29.98,6,NNW,2.3,,,,,330,2013-06-25 06:00:00
8:55 AM,68.0,62.6,83,29.98,6.2,NNE,4.6,-,N/A,,Partly Cloudy,30,2013-06-25 06:55:00
9:55 AM,71.6,64.4,78,29.98,6.2,West,2.3,-,N/A,,Scattered Clouds,260,2013-06-25 07:55:00
10:55 AM,75.2,62.6,65,29.98,6.2,WSW,4.6,-,N/A,,Scattered Clouds,250,2013-06-25 08:55:00
11:00 AM,75,62,55,29.99,10,WSW,4.6,,,,Partly Cloudy,250,2013-06-25 09:00:00
11:55 AM,77.0,62.6,61,29.98,6.2,WSW,10.4,-,N/A,,Scattered Clouds,250,2013-06-25 09:55:00
12:55 PM,77.0,68.0,74,30.01,6.2,West,8.1,-,N/A,,Partly Cloudy,260,2013-06-25 10:55:00
1:55 PM,78.8,66.2,65,30.01,6.2,SW,10.4,-,N/A,,Partly Cloudy,230,2013-06-25 11:55:00
2:00 PM,78,66,59,30.01,12,SW,10.4,,,,,230,2013-06-25 12:00:00
2:55 PM,78.8,62.6,57,30.01,6.2,WSW,11.5,-,N/A,,Partly Cloudy,250,2013-06-25 12:55:00
3:55 PM,78.8,60.8,54,30.01,6.2,West,8.1,-,N/A,,Partly Cloudy,260,2013-06-25 13:55:00
4:55 PM,78.8,59.0,51,30.01,6.2,WSW,11.5,-,N/A,,Partly Cloudy,250,2013-06-25 14:55:00
5:00 PM,78,59,42,30.01,19,WSW,11.5,,,,Scattered Clouds,250,2013-06-25 15:00:00
5:55 PM,77.0,62.6,61,30.01,6.2,West,9.2,-,N/A,,Partly Cloudy,260,2013-06-25 15:55:00
6:55 PM,77.0,60.8,57,30.01,6.2,WSW,6.9,-,N/A,,Partly Cloudy,250,2013-06-25 16:55:00
7:55 PM,75.2,57.2,53,30.01,6.2,West,3.5,-,N/A,,Partly Cloudy,260,2013-06-25 17:55:00
8:00 PM,75,56,42,30.01,19,West,3.5,,,,,260,2013-06-25 18:00:00
8:55 PM,73.4,57.2,57,30.01,6.2,South,3.5,-,N/A,,Partly Cloudy,190,2013-06-25 18:55:00
9:55 PM,69.8,62.6,78,30.01,6.2,WSW,1.2,-,N/A,,Partly Cloudy,240,2013-06-25 19:55:00
10:55 PM,66.2,60.8,83,30.04,-9999.0,North,3.5,-,N/A,,Clear,360,2013-06-25 20:55:00
11:00 PM,66,61,78,30.05,12,North,3.5,,,,,0,2013-06-25 21:00:00
11:55 PM,64.4,62.6,94,30.04,-9999.0,East,2.3,-,N/A,,Clear,90,2013-06-25 21:55:00